Regional Weather Roundup
Issued by NWS Sterling, VA

Home | Current Version | Previous Version | Text Only | Print | Product List | Glossary Off
Versions: 1 2 3 4 5 6 7 8 9 10 11 12 13 14 15 16 17 18 19 20 21 22 23 24 25 26 27

000
ASUS41 KLWX 191911
RWRLWX

REGIONAL WEATHER ROUNDUP
NATIONAL WEATHER SERVICE BALTIMORE MD/WASHINGTON DC
300 PM EDT SAT AUG 19 2017

Note: "FAIR" indicates few or no clouds below 12,000 feet
with no significant weather and/or obstructions to visibility.
 TC=TEMPERATURE CELSIUS

 * =Non NWS site. Station does not report precipitation (e.g. rain,
    snow, etc.), thunder, or fog.

DCZ001-MDZ009-015-VAZ040>042-051-053>054-192000-
WASHINGTON METRO

CITY           SKY/WX    TMP DP  RH WIND       PRES   REMARKS
WASHINGTON NAT MOSUNNY   88  69  53 VRB7      29.91F HX  92
DULLES         SUNNY     87  64  46 W7        29.92F
ANDREWS AFB    MOSUNNY   87  66  49 NW6       29.91F
FT BELVOIR     SUNNY     89  65  45 NW6       29.91F HX  90
QUANTICO       SUNNY     88  71  57 S5        29.91F HX  94
COLLEGE PARK*  MOSUNNY   85  64  48 N3        29.90F
LEESBURG*      MOSUNNY   88  70  55 W8        29.93F HX  92
MANASSAS*      MOSUNNY   87  67  51 SW7       29.92F HX  90
GAITHERSBURG*  MOSUNNY   85  67  54 NW8       29.93F

$$

MDZ006>007-011-014-192000-
BALTIMORE METRO

CITY           SKY/WX    TMP DP  RH WIND       PRES   REMARKS
BWI AIRPORT    MOSUNNY   87  67  51 SW5       29.89F HX  90
MD SCIENCE CTR   N/A     88  66  48 MISG      29.89F HX  90
ANNAPOLIS      MOSUNNY   86  73  65 SE5       29.90F HX  93
FORT MEADE*      N/A     84  68  58 NW7       29.93F

$$

MDZ012-015-019>023-192000-
MARYLAND EASTERN SHORE

CITY           SKY/WX    TMP DP  RH WIND       PRES   REMARKS
OCEAN CITY     MOSUNNY   84  76  76 SE6       29.91F HX  93
SALISBURY      PTSUNNY   86  69  56 NW5       29.90F HX  90
BAY BRIDGE AP* SUNNY     86  70  58 W5        29.91F HX  90
CAMBRIDGE*     SUNNY     86  66  51 NW7       29.91F

$$

MDZ017>025-192000-
SOUTHERN MARYLAND

CITY           SKY/WX    TMP DP  RH WIND       PRES   REMARKS
PATUXENT RIVER MOSUNNY   85  71  63 E7        29.91F HX  90
ST INIGOES     SUNNY     85  72  65 W5        29.90F HX  91
LEONARDTOWN*   MOSUNNY   86  66  51 CALM      29.93F

$$

MDZ003>005-192000-
NORTH CENTRAL MARYLAND

CITY           SKY/WX    TMP DP  RH WIND       PRES   REMARKS
FREDERICK*     MOSUNNY   88  61  40 NW6       29.94F
HAGERSTOWN APT MOSUNNY   86  64  47 SW9       29.91F
WESTMINSTER*   MOSUNNY   86  64  48 W9        29.92F

$$

MDZ501>502-192000-
WESTERN MARYLAND

CITY           SKY/WX    TMP DP  RH WIND       PRES   REMARKS
OAKLAND*       SUNNY     73  59  60 W7        30.02S
CUMBERLAND*    PTSUNNY   82  59  44 SW5       29.97F

$$

VAZ025>031-192000-
SHENANDOAH VALLEY

CITY           SKY/WX    TMP DP  RH WIND       PRES   REMARKS
WINCHESTER*    SUNNY     84  63  48 S5        29.93F
FRONT ROYAL*   MOSUNNY   86  64  48 W8        29.93F
LURAY*         SUNNY     86  57  37 CALM      29.95F
NEW MARKET*    MOSUNNY   85  65  52 S6        29.93F
STAUNTON*      MOSUNNY   84  62  47 S6        29.99F
WAYNESBORO*    MOSUNNY   85  63  47 S3        29.99F

$$

WVZ021-048>050-054>055-192000-
EASTERN WEST VIRGINIA PANHANDLE

CITY           SKY/WX    TMP DP  RH WIND       PRES   REMARKS
MARTINSBURG    SUNNY     86  64  47 SW9       29.91F
PETERSBURG*    SUNNY     87  62  44 NW3       29.95F

$$

VAZ036>039-050-192000-
CENTRAL FOOTHILLS

CITY           SKY/WX    TMP DP  RH WIND       PRES   REMARKS
CHARLOTTESVILL SUNNY     89  62  40 NW6       29.94S
CULPEPER*      SUNNY     89  67  47 SW3       29.92F HX  92
ORANGE*        SUNNY     86  63  45 CALM      29.92F
GORDONSVILLE*  SUNNY     87  65  48 CALM      29.93S
WARRENTON*     SUNNY     89  61  38 CALM      29.92F

$$

VAZ055>057-192000-
NORTH AND CENTRAL PIEDMONT

CITY           SKY/WX    TMP DP  RH WIND       PRES   REMARKS
FREDERICKSBRG* MOSUNNY   90  67  47 S3        29.91F HX  93
STAFFORD*      SUNNY     87  67  50 CALM      29.96F

$$

NCZ024-NYZ072-PAZ021-071-VAZ022-071-192000-
OTHER REGIONAL OBSERVATIONS

CITY           SKY/WX    TMP DP  RH WIND       PRES   REMARKS
NEW YORK CITY  MOSUNNY   85  63  47 VRB5      29.86F
PHILADELPHIA   MOSUNNY   87  62  43 W6        29.88F
PITTSBURGH     MOSUNNY   82  64  54 SW13G22   29.91F
ROANOKE        MOSUNNY   89  58  34 VRB5      30.00F
RICHMOND       MOSUNNY   86  68  54 VRB5      29.92F
RALEIGH        MOSUNNY   91  65  41 CALM      29.94F HX  93

$$

ANZ530>537-192000-
MARINE OBSERVATIONS

STATION/POSITION TIME  TEMP    WIND        PRES
                       AIR SEA DIR/SP/G
                 (UTC) (F)     (DEG/KT/KT) (MB)
THOMAS PT LIGHT  1900   82 80  160/  6/  6   N/A
BALT KEY BRIDGE  1848   85     270/  6/  8 1012.5F
COVE POINT       1848   82      90/  4/  5 1013.5F
LEWISETTA        1848   84 82   70/  4/  5 1012.9F
SOLOMONS ISLAND  1842   81 81  100/  6/  7   N/A
PINEY POINT      1848          300/  4/  4   N/A

$$





USA.gov is the U.S. government's official web portal to all federal, state and local government web resources and services.